Regional Weather Roundup
Issued by NWS

Home | Current Version | Previous Version | Text Only | Print | Product List | Glossary Off
Versions: 1 2 3 4 5 6 7 8 9 10 11 12 13 14 15 16 17 18 19 20 21 22 23 24 25 26 27 28 29 30 31 32 33 34 35 36 37 38 39 40 41 42 43 44 45 46 47 48 49 50

163
ASUS43 KLOT 240908
RWRIL

ILLINOIS REGIONAL WEATHER ROUNDUP
NATIONAL WEATHER SERVICE CHICAGO/ROMEOVILLE IL
400 AM CDT TUE APR 24 2018

NOTE: "FAIR" INDICATES FEW OR NO CLOUDS BELOW 12,000 FEET WITH NO
SIGNIFICANT WEATHER AND/OR OBSTRUCTIONS TO VISIBILITY.

* THESE STATIONS ARE NOT UNDER NWS QUALITY CONTROL. THEY ALSO MAY NOT
  REPORT WEATHER SUCH AS PRECIPITATION OR FOG.

ILZ001-002-007-009-015-016-024-241000-
NORTHWEST ILLINOIS

CITY           SKY/WX    TMP DP  RH WIND       PRES   REMARKS
MOLINE         FAIR      52  38  58 CALM      30.06S
STERLING*      FAIR      52  30  43 N5        30.07S
SAVANNA*       FAIR      48  32  53 CALM      30.08S
$$

ILZ003-004-008-010-011-017-018-241000-
NORTH CENTRAL ILLINOIS

CITY           SKY/WX    TMP DP  RH WIND       PRES   REMARKS
ROCKFORD       MOCLDY    50  27  40 N8        30.08F
FREEPORT*      FAIR      46  32  58 N5        30.09F
ROCHELLE*      CLOUDY    48  31  51 NE6       30.07S
DE KALB*       CLOUDY    50  31  48 N3        30.07S
PERU*          CLOUDY    53  38  57 NE7       30.05S
$$

ILZ005-006-012>014-019>023-241000-
NORTHEAST ILLINOIS

CITY           SKY/WX    TMP DP  RH WIND       PRES   REMARKS
CHICAGO-OHARE  CLOUDY    50  36  58 NE5       30.06R
CHICAGO-MIDWAY CLOUDY    53  39  59 E3        30.06S
AURORA         CLOUDY    51  34  52 NE3       30.05S
LANSING*       LGT RAIN  45  44  97 CALM      30.06F
JOLIET*        CLOUDY    52  48  86 NE3       30.06S
WAUKEGAN       CLOUDY    46  34  62 NE3       30.07R
DUPAGE AIRPORT CLOUDY    48  38  68 N5        30.05S
KANKAKEE*      CLOUDY    51  50  97 NE7       30.04F
WHEELING       CLOUDY    49  33  54 CALM      30.09R
MORRIS*        CLOUDY    49  44  83 CALM      30.04F
ROMEOVILLE*    CLOUDY    49  44  83 E5        30.06S
NORTHERLY ISL    N/A     44  34  67 MISG        N/A
$$

LMZ740>746-241000-
SOUTHERN LAKE MICHIGAN

STATION/POSITION SKY/WX   TEMP    WIND        PRES    VSBY  WAVE
                          AIR SEA DIR/SP/G                  HT/PER
                          (F)     (DEG/KT/KT) (MB)    (MI)  (FT/S)
HARRISON CRIB              43      40/  6/  7   N/A
BURNHAM HARBOR             44     330/  3/ 10   N/A
CALUMET HARBOR             42     340/  6/  7 1017.7S
BURNS HARBOR               42        CALM     1018.6S
MICHIGAN CITY              51      70/  5/  6   N/A
ST. JOSEPH                 51 42  200/  4/  6 1018.7          2/ 4
$$

ILZ025>027-034>036-040-047-049-050-058-095>099-241000-
WEST-CENTRAL ILLINOIS

CITY           SKY/WX    TMP DP  RH WIND       PRES   REMARKS
QUINCY         CLOUDY    55  52  89 N8        30.03R
GALESBURG*     CLOUDY    55  46  72 NE8       30.06R
MACOMB*        CLOUDY    52  48  86 NE7       30.06S
JACKSONVILLE*  CLOUDY    54  53  95 N7        30.01S FOG
PITTSFIELD*    CLOUDY    56  54  95 NE5       30.03S
$$

ILZ028>032-037-038-041>044-048-051>054-059>061-241000-
CENTRAL ILLINOIS

CITY           SKY/WX    TMP DP  RH WIND       PRES   REMARKS
PONTIAC        CLOUDY    50  49  98 NE9       30.04F FOG
BLOOMINGTON    FOG       51  51 100 NE12      30.02F VSB 1
DECATUR        LGT RAIN  53  53 100 NE8       29.99S FOG
PEORIA         CLOUDY    51  49  92 NE8       30.03F FOG
LACON*         CLOUDY    51  43  74 CALM      30.04S
LINCOLN*       CLOUDY    53  53 100 NE8       30.01F FOG
SPRINGFIELD    CLOUDY    55  54  96 NE10      30.00S FOG
TAYLORVILLE    CLOUDY    53  53 100 NE10      29.98F FOG
$$

ILZ033-039-045-046-055>057-062-063-241000-
EAST-CENTRAL ILLINOIS

CITY           SKY/WX    TMP DP  RH WIND       PRES   REMARKS
CHAMPAIGN      CLOUDY    53  51  93 NE10      30.00R
DANVILLE*      CLOUDY    51  51  99 NE8       29.98S
RANTOUL*       FAIR      52  52  99 NE8       30.00F
MATTOON        CLOUDY    51  51 100 NE7       29.97R
PARIS*         CLOUDY    52  51  95 NE8       29.99S
$$

ILZ079-100>102-241000-
SOUTHWEST ILLINOIS

CITY           SKY/WX    TMP DP  RH WIND       PRES   REMARKS
ALTON          CLOUDY    54  54 100 N3        29.98S FOG
BELLEVILLE     CLOUDY    55  54  97 N7        29.95S
CAHOKIA*       CLOUDY    56  53  90 N9        29.97S
SPARTA*        DRIZZLE   55  55 100 N5        29.96S
$$

ILZ064>066-069>071-074>076-080>082-084>086-088>090-092>094-241000-
SOUTH-CENTRAL ILLINOIS

CITY           SKY/WX    TMP DP  RH WIND       PRES   REMARKS
CARBONDALE     CLOUDY    55  54  96 N3        29.93S
CAIRO*         CLOUDY    55  55 100 N5        29.92F FOG
EFFINGHAM*     CLOUDY    53  53 100 NE3       29.98S
MARION         CLOUDY   N/A N/A N/A N3        29.94S HAZE
MT. VERNON     CLOUDY    54  54 100 N6        29.95R FOG
CENTRALIA*     CLOUDY    56  56  98 N3        29.94S
SALEM*         CLOUDY    56  55  93 CALM      29.95S
METROPOLIS*    CLOUDY    55  54  98 CALM      29.92F
$$

ILZ067-068-072-073-078-083-087-091-241000-
SOUTHEAST ILLINOIS

CITY           SKY/WX    TMP DP  RH WIND       PRES   REMARKS
LAWRENCEVILLE  CLOUDY    54  52  93 MISG      29.95S
FLORA*         MOCLDY    55  53  93 NE5       29.95F
FAIRFIELD*     MOCLDY    54  54 100 N5        29.94R
HARRISBURG*    CLOUDY    55  55 100 N3        29.94R
ROBINSON*      CLOUDY    51  51  99 N5        29.96S
CARMI*         CLOUDY    55  54  99 N5        29.93R
$$

ABBREVIATIONS USED IN REMARKS
   TC - TEMPERATURE IN CELSIUS
  WCI - WIND CHILL INDEX
   HX - HEAT INDEX
  VSB - VISIBILITY
$$





USA.gov is the U.S. government's official web portal to all federal, state and local government web resources and services.